Location: Unspecified
(50.7693°N, 0.0000°E)
Time: 11:01:34
(UTC+00:00)

deb Explorer IX - All Passes

Search period start: 18 June 2019 00:00
Search period end: 28 June 2019 00:00
Orbit: 537 x 1115 km, 38.8° (Epoch: 16 June)

Date Brightness Start Highest point End Pass type
(mag) Time Alt. Az. Time Alt. Az. Time Alt. Az.
18 Jun - 14:50:48 10° SSW 14:55:38 19° SSE 15:00:21 10° ESE daylight
18 Jun - 16:35:48 10° SW 16:41:55 29° S 16:47:40 10° ESE daylight
18 Jun - 18:22:28 10° WSW 18:28:18 28° SSW 18:33:38 10° SE daylight
18 Jun - 20:10:38 10° WSW 20:14:16 15° SSW 20:17:42 10° S daylight
19 Jun - 14:28:47 10° SSW 14:33:41 19° SSE 14:38:32 10° ESE daylight
19 Jun - 16:13:47 10° SW 16:19:59 30° S 16:25:51 10° ESE daylight
19 Jun - 18:00:27 10° WSW 18:06:23 28° SSW 18:11:52 10° SE daylight
19 Jun - 19:48:35 10° WSW 19:52:24 16° SSW 19:55:58 10° S daylight
20 Jun - 14:06:47 10° SSW 14:11:44 20° SSE 14:16:40 10° ESE daylight
20 Jun - 15:51:48 10° SW 15:58:01 30° S 16:04:00 10° ESE daylight
20 Jun - 17:38:26 10° WSW 17:44:27 28° SSW 17:50:04 10° SE daylight
20 Jun - 19:26:32 10° WSW 19:30:29 16° SSW 19:34:12 10° S daylight
21 Jun - 13:44:48 10° SSW 13:49:47 20° SSE 13:54:46 10° ESE daylight
21 Jun - 15:29:49 10° SW 15:36:03 30° S 15:42:08 10° ESE daylight
21 Jun - 17:16:26 10° WSW 17:22:31 29° SSW 17:28:16 10° SE daylight
21 Jun - 19:04:30 10° WSW 19:08:34 16° SSW 19:12:25 10° S daylight
22 Jun - 13:22:52 10° SSW 13:27:48 20° SSE 13:32:51 10° ESE daylight
22 Jun - 15:07:51 10° SW 15:14:05 31° S 15:20:16 10° ESE daylight
22 Jun - 16:54:26 10° WSW 17:00:34 29° SSW 17:06:24 10° SE daylight
22 Jun - 18:42:29 10° WSW 18:46:38 16° SSW 18:50:36 10° S daylight
23 Jun - 13:00:56 10° SSW 13:05:51 20° SSE 13:10:54 10° ESE daylight
23 Jun - 14:45:54 10° SW 14:52:07 31° S 14:58:21 10° ESE daylight
23 Jun - 16:32:28 10° WSW 16:38:36 29° SSW 16:44:32 10° SE daylight
23 Jun - 18:20:28 10° WSW 18:24:41 16° SSW 18:28:45 10° S daylight
24 Jun - 12:39:01 10° SSW 12:43:53 20° SSE 12:48:55 10° ESE daylight
24 Jun - 14:23:58 10° SW 14:30:09 31° S 14:36:24 10° ESE daylight
24 Jun - 16:10:29 10° WSW 16:16:38 29° SSW 16:22:37 10° SE daylight
24 Jun - 17:58:29 10° WSW 18:02:45 17° SSW 18:06:51 10° S daylight
25 Jun - 12:17:08 10° SSW 12:21:55 20° SSE 12:26:56 10° ESE daylight
25 Jun - 14:02:04 10° SW 14:08:10 31° S 14:14:25 10° ESE daylight
25 Jun - 15:48:32 10° WSW 15:54:38 29° SSW 16:00:41 10° SE daylight
25 Jun - 17:36:30 10° WSW 17:40:46 17° SSW 17:44:57 10° S daylight
26 Jun - 11:55:17 10° SSW 11:59:58 20° SSE 12:04:55 10° ESE daylight
26 Jun - 13:40:10 10° SW 13:46:11 31° S 13:52:27 10° ESE daylight
26 Jun - 15:26:37 10° WSW 15:32:39 29° SSW 15:38:44 10° SE daylight
26 Jun - 17:14:32 10° WSW 17:18:49 16° SSW 17:23:00 10° S daylight
27 Jun - 11:33:26 10° SSW 11:38:00 20° SSE 11:42:53 10° ESE daylight
27 Jun - 13:18:17 10° SW 13:24:12 30° S 13:30:27 10° ESE daylight
27 Jun - 15:04:42 10° WSW 15:10:40 29° SSW 15:16:45 10° SE daylight
27 Jun - 16:52:36 10° WSW 16:56:50 16° SSW 17:01:01 10° S daylight
